N5MCB Weather Reports


time (UTC)temp
F
wind
direction
speed
knots
gust
knots
rain 1hr
in
rain 24hr
in
rain mn
in
humidity
%
barometer
mb
20260506014323 69 70 1.7 2.6 0.00 0.00 0.00 75 1005.9
20260506013813 70 297 2.6 2.6 0.00 0.00 0.00 74 1006.4
20260506013749 71 93 0.0 0.9 0.00 0.00 0.00 74 1006.2
20260506012757 72 127 1.7 1.7 0.00 0.00 0.00 73 1006.0
20260506012248 72 94 1.7 2.6 0.00 0.00 0.00 72 1006.1
20260506011740 72 116 0.9 1.7 0.00 0.00 0.00 71 1005.7
20260506011451 72 73 3.5 3.5 0.00 0.00 0.00 71 1005.8
20260506010724 72 84 0.9 0.9 0.00 0.00 0.00 70 1005.7
20260506010433 72 99 1.7 1.7 0.00 0.00 0.00 70 1005.9
20260506005703 72 95 0.0 0.0 0.00 0.00 0.00 70 1005.0
20260506005157 72 39 2.6 2.6 0.00 0.00 0.00 70 1005.2
20260506004907 73 83 1.7 2.6 0.00 0.00 0.00 69 1005.4
20260506004400 73 93 0.9 0.9 0.00 0.00 0.00 69 1005.4
20260506003852 73 129 1.7 1.7 0.00 0.00 0.00 69 1005.9
20260506003610 73 94 0.9 1.7 0.00 0.00 0.00 68 1005.4
20260506002613 73 78 1.7 1.7 0.00 0.00 0.00 68 1005.4
20260506002106 74 308 4.3 6.1 0.00 0.00 0.00 68 1005.4
20260506001819 74 356 3.5 5.2 0.00 0.00 0.00 68 1005.4
20260506001051 74 59 2.6 3.5 0.00 0.00 0.00 68 1005.1
20260506000545 75 85 0.9 0.9 0.00 0.00 0.00 69 1005.0
20260506000031 76 28 6.1 7.8 0.00 0.00 0.00 67 1005.0
20260505235520 76 111 3.5 6.1 0.00 0.00 0.00 67 1005.1
20260505235231 77 107 3.5 3.5 0.00 0.00 0.00 65 1004.4
20260505234949 78 94 0.9 0.9 0.00 0.00 0.00 65 1004.7
20260505233957 78 349 4.3 6.1 0.00 0.00 0.00 64 1004.5
20260505233705 79 38 2.6 3.5 0.00 0.00 0.00 64 1004.5
20260505232939 79 319 2.6 3.5 0.00 0.00 0.00 63 1004.5
20260505232651 80 329 2.6 2.6 0.00 0.00 0.00 62 1004.5
20260505231923 80 340 5.2 8.7 0.00 0.00 0.00 60 1004.4
20260505231414 81 53 2.6 2.6 0.00 0.00 0.00 60 1004.4
20260505230906 82 109 4.3 7.0 0.00 0.00 0.00 58 1004.3
20260505230357 83 87 2.6 3.5 0.00 0.00 0.00 56 1004.1
20260505225845 84 118 2.6 3.5 0.00 0.00 0.00 53 1003.9
20260505225821 84 96 0.9 1.7 0.00 0.00 0.00 51 1003.7
20260505224831 84 76 3.5 5.2 0.00 0.00 0.00 50 1004.0
20260505224323 84 112 2.6 3.5 0.00 0.00 0.00 49 1003.9
20260505223813 85 283 2.6 2.6 0.00 0.00 0.00 48 1004.0
20260505223305 86 56 4.3 6.1 0.00 0.00 0.00 47 1003.6
20260505223015 86 192 1.7 2.6 0.00 0.00 0.00 48 1003.6
20260505222247 86 100 0.9 0.9 0.00 0.00 0.00 48 1003.5
20260505221739 87 113 2.6 3.5 0.00 0.00 0.00 47 1003.3
20260505221232 88 101 1.7 2.6 0.00 0.00 0.00 53 1003.3
20260505220724 89 93 0.0 0.0 0.00 0.00 0.00 53 1003.1
20260505220213 89 89 0.9 1.7 0.00 0.00 0.00 53 1003.2
20260505215705 89 105 0.9 0.9 0.00 0.00 0.00 53 1003.4
20260505215154 89 149 1.7 3.5 0.00 0.00 0.00 51 1003.4
20260505214906 89 96 0.9 1.7 0.00 0.00 0.00 52 1003.4
20260505214358 89 102 0.9 0.9 0.00 0.00 0.00 52 1003.5
20260505213851 89 105 0.9 1.7 0.00 0.00 0.00 53 1003.5
20260505213344 89 91 0.0 0.9 0.00 0.00 0.00 52 1003.5
20260505212613 89 61 1.7 2.6 0.00 0.00 0.00 53 1003.4
20260505212105 89 98 0.0 0.0 0.00 0.00 0.00 54 1003.5
20260505211559 89 79 2.6 2.6 0.00 0.00 0.00 54 1003.6
20260505211053 88 141 1.7 2.6 0.00 0.00 0.00 54 1003.6
20260505210547 88 90 1.7 1.7 0.00 0.00 0.00 54 1003.6
20260505210040 88 101 0.0 0.9 0.00 0.00 0.00 55 1003.8
20260505205534 89 95 0.9 0.9 0.00 0.00 0.00 53 1003.8
20260505205246 89 102 1.7 1.7 0.00 0.00 0.00 53 1003.7
20260505204014 88 105 0.0 0.9 0.00 0.00 0.00 54 1003.8
20260505203505 88 335 2.6 5.2 0.00 0.00 0.00 55 1004.1
20260505203218 88 100 0.0 0.9 0.00 0.00 0.00 56 1004.2
20260505202453 87 97 0.9 0.9 0.00 0.00 0.00 55 1004.2
20260505201947 87 106 1.7 1.7 0.00 0.00 0.00 55 1004.2
20260505201656 88 99 1.7 2.6 0.00 0.00 0.00 54 1004.2
20260505201149 88 100 1.7 1.7 0.00 0.00 0.00 55 1004.2
20260505200907 87 85 0.9 0.9 0.00 0.00 0.00 58 1004.1
20260505195914 87 152 0.0 0.0 0.00 0.00 0.00 58 1004.2
20260505195408 86 169 1.7 2.6 0.00 0.00 0.00 57 1004.1
20260505194903 86 127 1.7 1.7 0.00 0.00 0.00 56 1004.1
20260505194357 87 83 1.7 3.5 0.00 0.00 0.00 56 1004.3
20260505194106 87 92 1.7 1.7 0.00 0.00 0.00 57 1004.4
20260505193339 86 154 0.9 1.7 0.00 0.00 0.00 57 1004.3
20260505192831 86 220 1.7 2.6 0.00 0.00 0.00 57 1004.1
20260505192323 86 73 1.7 2.6 0.00 0.00 0.00 59 1004.1
20260505192033 86 84 1.7 2.6 0.00 0.00 0.00 58 1004.4
20260505191308 86 134 0.9 1.7 0.00 0.00 0.00 58 1004.3
20260505190802 86 112 0.0 0.9 0.00 0.00 0.00 60 1004.2
20260505190255 85 98 0.9 1.7 0.00 0.00 0.00 60 1004.0
20260505185749 86 197 0.9 1.7 0.00 0.00 0.00 61 1004.2
20260505185243 86 82 0.0 0.0 0.00 0.00 0.00 60 1004.4
20260505184958 85 99 0.0 0.0 0.00 0.00 0.00 62 1004.2
20260505184716 84 140 0.0 0.9 0.00 0.00 0.00 62 1004.3
20260505183722 84 108 0.9 0.9 0.00 0.00 0.00 62 1004.1
20260505183214 85 217 1.7 2.6 0.00 0.00 0.00 62 1004.2
20260505182706 85 164 1.7 2.6 0.00 0.00 0.00 63 1004.3
20260505182422 84 94 0.0 0.9 0.00 0.00 0.00 64 1004.3
20260505181915 84 176 1.7 1.7 0.00 0.00 0.00 65 1004.4
20260505181148 83 201 0.9 1.7 0.00 0.00 0.00 65 1004.6
20260505180637 84 116 0.0 0.9 0.00 0.00 0.00 64 1004.3
20260505180131 84 107 0.9 2.6 0.00 0.00 0.00 63 1004.5
20260505175624 83 223 0.9 1.7 0.00 0.00 0.00 66 1004.4
20260505175118 84 124 1.7 2.6 0.00 0.00 0.00 65 1004.6
20260505175101 83 103 0.0 0.0 0.00 0.00 0.00 67 1004.5
20260505174324 83 143 0.9 1.7 0.00 0.00 0.00 66 1004.5
20260505173557 83 97 1.7 3.5 0.00 0.00 0.00 67 1004.4
20260505173047 82 164 0.0 1.7 0.00 0.00 0.00 68 1004.4
20260505172539 82 163 1.7 5.2 0.00 0.00 0.00 66 1004.4
20260505172251 81 209 2.6 5.2 0.00 0.00 0.00 68 1004.3
20260505171523 81 97 0.9 0.9 0.00 0.00 0.00 69 1004.3
20260505171017 81 115 1.7 1.7 0.00 0.00 0.00 68 1004.1
20260505170511 81 93 1.7 2.6 0.00 0.00 0.00 69 1004.4
20260505170005 81 110 0.0 0.0 0.00 0.00 0.00 69 1004.6
20260505165719 80 95 0.0 0.9 0.00 0.00 0.00 70 1004.4
20260505164952 80 128 0.9 1.7 0.00 0.00 0.00 70 1004.6
20260505164446 79 108 1.7 2.6 0.00 0.00 0.00 70 1004.6
20260505163940 79 89 0.9 0.9 0.00 0.00 0.00 71 1004.5
20260505163432 78 103 0.9 1.7 0.00 0.00 0.00 71 1004.6
20260505163409 78 91 0.9 1.7 0.00 0.00 0.00 72 1004.7
20260505162414 79 167 1.7 2.6 0.00 0.00 0.00 71 1004.5
20260505162125 79 109 0.0 0.9 0.00 0.00 0.00 71 1004.6
20260505161359 79 123 0.9 1.7 0.00 0.00 0.00 71 1004.4
20260505160853 79 74 2.6 6.1 0.00 0.00 0.00 72 1004.2
20260505160347 79 234 1.7 2.6 0.00 0.00 0.00 71 1004.5
20260505152757 77 207 0.9 1.7 0.00 0.00 0.00 74 1003.9
20260505152247 76 165 1.7 2.6 0.00 0.00 0.00 75 1004.0
20260505151739 76 163 1.7 2.6 0.00 0.00 0.00 75 1004.1
20260505151231 76 72 1.7 1.7 0.00 0.00 0.00 76 1004.2
20260505150723 76 292 3.5 5.2 0.00 0.00 0.00 76 1004.3
20260505150212 76 345 2.6 3.5 0.00 0.00 0.00 76 1004.2
20260505140250 74 185 0.9 0.9 0.00 0.00 0.00 79 1004.1
20260505124842 72 115 1.7 2.6 0.00 0.00 0.00 81 1004.0
20260505124336 72 151 0.9 1.7 0.00 0.00 0.00 81 1003.8
20260505124051 72 102 0.0 0.9 0.00 0.00 0.00 81 1003.8
20260505123543 72 115 0.0 0.0 0.00 0.00 0.00 81 1003.5
20260505122814 72 64 1.7 2.6 0.00 0.00 0.00 81 1003.4
20260505122305 72 94 0.9 1.7 0.00 0.00 0.00 81 1003.5
20260505122243 72 114 1.7 2.6 0.00 0.00 0.00 81 1003.4
20260505121506 72 62 0.9 0.9 0.00 0.00 0.00 81 1003.4
20260505120740 72 127 1.7 1.7 0.00 0.00 0.00 81 1003.5
20260505120234 72 102 0.0 0.9 0.00 0.00 0.00 81 1003.5
20260505115728 72 34 0.9 0.9 0.00 0.00 0.00 81 1003.4
20260505115222 72 115 0.9 0.9 0.00 0.00 0.00 81 1003.3
20260505114939 72 179 1.7 1.7 0.00 0.00 0.00 81 1003.5
20260505114211 72 153 1.7 1.7 0.00 0.00 0.00 80 1003.6
20260505113705 72 96 1.7 1.7 0.00 0.00 0.00 81 1003.3
20260505113157 72 33 1.7 1.7 0.00 0.00 0.00 81 1003.5
20260505112647 72 112 0.9 1.7 0.00 0.00 0.00 81 1003.4
20260505112139 71 54 1.7 2.6 0.00 0.00 0.00 82 1003.0
20260505111631 71 47 0.9 0.9 0.00 0.00 0.00 83 1003.1
20260505111122 71 97 1.7 2.6 0.00 0.00 0.00 83 1003.1
20260505110615 71 105 0.9 1.7 0.00 0.00 0.00 83 1003.1
20260505110109 71 139 0.9 0.9 0.00 0.00 0.00 83 1003.2
20260505102005 72 157 0.0 0.9 0.00 0.00 0.00 82 1003.1
20260505101942 72 120 0.9 1.7 0.00 0.00 0.00 82 1003.2
20260505100947 72 103 0.9 1.7 0.00 0.00 0.00 82 1003.1
20260505100438 72 159 1.7 3.5 0.00 0.00 0.00 82 1002.9
20260505095930 72 101 0.9 1.7 0.00 0.00 0.00 82 1003.3
20260505095423 71 216 2.6 2.6 0.00 0.00 0.00 82 1003.3
20260505095358 71 147 1.7 2.6 0.00 0.00 0.00 82 1003.3
20260505094404 71 145 2.6 7.8 0.00 0.00 0.00 82 1003.3
20260505093855 71 266 0.9 2.6 0.00 0.00 0.00 82 1003.5
20260505093347 71 98 0.0 0.9 0.00 0.00 0.00 82 1003.4
20260505093100 71 155 1.7 1.7 0.00 0.00 0.00 82 1003.4
20260505092331 71 127 0.9 1.7 0.00 0.00 0.00 82 1003.6
20260505091823 71 142 1.7 2.6 0.00 0.00 0.00 83 1003.4
20260505090805 71 129 0.9 1.7 0.00 0.00 0.00 83 1003.7
20260505090256 71 100 1.7 1.7 0.00 0.00 0.00 83 1003.7
20260505090008 71 122 0.0 0.9 0.00 0.00 0.00 83 1003.6
20260505085726 71 136 0.9 0.9 0.00 0.00 0.00 83 1003.8
20260505084954 71 105 0.0 0.0 0.00 0.00 0.00 83 1003.5
20260505084226 71 99 1.7 2.6 0.00 0.00 0.00 82 1003.2
20260505083720 71 39 1.7 1.7 0.00 0.00 0.00 82 1003.5
20260505083214 71 149 2.6 6.1 0.00 0.00 0.00 82 1003.6
20260505082704 71 90 1.7 1.7 0.00 0.00 0.00 82 1003.4
20260505082156 71 116 1.7 1.7 0.00 0.00 0.00 82 1003.6
20260505081648 71 89 1.7 5.2 0.00 0.00 0.00 81 1003.6
20260505081140 71 108 0.9 0.9 0.00 0.00 0.00 81 1003.5
20260505080630 71 104 0.9 0.9 0.00 0.00 0.00 81 1003.7
20260505080121 72 112 0.9 1.7 0.00 0.00 0.00 81 1003.6
20260505075613 72 190 1.7 2.6 0.00 0.00 0.00 80 1003.8
20260505075103 72 161 3.5 7.0 0.00 0.00 0.00 80 1003.8
20260505074556 72 120 0.9 0.9 0.00 0.00 0.00 80 1004.1
20260505074047 72 128 0.0 0.9 0.00 0.00 0.00 79 1004.1
20260505074026 72 264 0.9 1.7 0.00 0.00 0.00 79 1004.2
20260505073249 72 119 0.9 0.9 0.00 0.00 0.00 79 1004.2
20260505072522 72 207 0.9 0.9 0.00 0.00 0.00 79 1004.3
20260505072014 72 141 3.5 7.8 0.00 0.00 0.00 79 1004.3
20260505071504 72 97 0.9 0.9 0.00 0.00 0.00 78 1004.4
20260505070956 72 352 2.6 3.5 0.00 0.00 0.00 78 1004.3
20260505070709 72 111 0.9 0.9 0.00 0.00 0.00 78 1004.5
20260505065947 72 106 1.7 1.7 0.00 0.00 0.00 78 1004.5
20260505065439 72 311 0.9 0.9 0.00 0.00 0.00 77 1004.5
20260505064929 72 125 0.0 0.9 0.00 0.00 0.00 77 1004.7
20260505064641 72 278 0.9 1.7 0.00 0.00 0.00 77 1004.9
20260505063912 72 99 0.9 0.9 0.00 0.00 0.00 77 1004.7
20260505063406 72 202 0.9 0.9 0.00 0.00 0.00 77 1004.9
20260505062856 72 109 0.0 0.9 0.00 0.00 0.00 76 1004.8
20260505062348 72 222 0.0 0.9 0.00 0.00 0.00 76 1004.9
20260505061840 72 113 0.9 0.9 0.00 0.00 0.00 76 1004.8
20260505061330 73 121 0.9 1.7 0.00 0.00 0.00 75 1004.9
20260505061307 73 88 1.7 2.6 0.00 0.00 0.00 75 1004.8
20260505060313 73 95 1.7 1.7 0.00 0.00 0.00 75 1004.7
20260505060249 73 131 1.7 3.5 0.00 0.00 0.00 75 1004.7
20260505054748 73 231 0.0 0.9 0.00 0.00 0.00 74 1005.0
20260505054502 73 98 0.9 0.9 0.00 0.00 0.00 74 1005.1
20260505053947 73 149 1.7 1.7 0.00 0.00 0.00 74 1005.0
20260505053709 73 115 1.7 2.6 0.00 0.00 0.00 73 1005.0
20260505052714 73 105 0.9 1.7 0.00 0.00 0.00 73 1005.4
20260505052205 73 142 0.9 0.9 0.00 0.00 0.00 73 1005.3
20260505051656 73 84 0.9 1.7 0.00 0.00 0.00 73 1005.4
20260505051148 73 90 3.5 6.1 0.00 0.00 0.00 72 1005.3
20260505050859 74 104 3.5 5.2 0.00 0.00 0.00 72 1005.4
20260505050348 74 126 0.9 0.9 0.00 0.00 0.00 72 1005.5
20260505041735 74 229 0.9 0.9 0.00 0.00 0.00 71 1005.4
20260505041004 74 103 2.6 3.5 0.00 0.00 0.00 71 1005.6
20260505040455 74 181 4.3 7.0 0.00 0.00 0.00 70 1005.7
20260505040209 74 164 1.7 3.5 0.00 0.00 0.00 71 1005.5
20260505035439 74 168 1.7 2.6 0.00 0.00 0.00 71 1005.4
20260505034929 74 108 0.0 0.9 0.00 0.00 0.00 70 1005.4
20260505034422 74 109 2.6 6.1 0.00 0.00 0.00 70 1005.5
20260505033914 74 99 0.9 2.6 0.00 0.00 0.00 70 1005.5
20260505033402 74 116 0.9 5.2 0.00 0.00 0.00 70 1005.6
20260505032856 74 115 3.5 6.1 0.00 0.00 0.00 70 1005.6
20260505032348 74 95 1.7 1.7 0.00 0.00 0.00 69 1005.8
20260505031839 74 174 1.7 2.6 0.00 0.00 0.00 69 1005.5
20260505031330 74 133 0.0 0.9 0.00 0.00 0.00 69 1005.4
20260505030823 74 105 0.0 0.9 0.00 0.00 0.00 69 1005.7
20260505030313 74 125 0.9 0.9 0.00 0.00 0.00 69 1005.5
20260505025803 74 89 0.9 1.7 0.00 0.00 0.00 69 1005.8
20260505025255 74 157 2.6 3.5 0.00 0.00 0.00 69 1005.5
20260505024748 74 84 0.9 1.7 0.00 0.00 0.00 69 1005.5
20260505024240 75 135 2.6 3.5 0.00 0.00 0.00 68 1005.7
20260505023220 75 152 3.5 7.0 0.00 0.00 0.00 67 1005.5
20260505022714 75 129 1.7 5.2 0.00 0.00 0.00 67 1005.8
20260505022204 75 142 0.0 0.0 0.00 0.00 0.00 68 1005.7
20260505021409 75 107 3.5 5.2 0.00 0.00 0.00 67 1005.7
20260505020858 75 307 0.9 2.6 0.00 0.00 0.00 67 1005.6
20260505020129 75 125 0.0 0.0 0.00 0.00 0.00 66 1005.4
20260505015844 75 72 0.0 0.9 0.00 0.00 0.00 66 1005.7
20260505015113 76 111 1.7 2.6 0.00 0.00 0.00 66 1005.5
20260505014604 76 88 0.9 0.9 0.00 0.00 0.00 66 1005.7
20260505014543 76 100 3.5 7.0 0.00 0.00 0.00 66 1005.6